Location: Unspecified
(0.0000°N, 0.0000°E)
Time: 23:39:14
(UTC+01:00)

Cosmos 1953 Rocket - Visible Passes

Search period start: 27 February 2015 00:00
Search period end: 09 March 2015 00:00
Orbit: 605 x 636 km, 82.5° (Epoch: 26 February)

Date Brightness Start Highest point End Pass type
(mag) Time Alt. Az. Time Alt. Az. Time Alt. Az.
27 Feb 4.6 19:42:37 10° NNE 19:46:17 26° E 19:50:03 10° SE visible
27 Feb 6.8 21:22:04 10° WNW 21:24:07 12° W 21:25:49 10° WSW visible
28 Feb 3.6 19:59:47 10° N 20:04:11 60° E 20:08:37 10° SSE visible
01 Mar 4.3 20:17:39 10° NNW 20:22:03 57° W 20:26:28 10° S visible
02 Mar 6.0 20:36:16 10° NW 20:39:58 24° W 20:43:34 10° SSW visible
03 Mar 7.1 20:56:49 10° W 20:57:58 11° W 20:58:44 10° WSW visible
04 Mar 3.6 19:33:33 10° N 19:38:00 70° E 19:42:29 10° S visible
05 Mar 4.7 19:51:33 10° NNW 19:55:53 48° W 20:00:13 10° SSW visible
06 Mar 6.4 20:10:19 10° NW 20:13:48 21° W 20:17:08 10° SW visible
07 Mar 6.6 06:41:45 10° SE 06:45:01 22° E 06:48:23 10° NE visible
